Terug naar catalogus

SL-24 R/B

ActiefPO
NORAD 35688·ROCKET BODY·🇷🇺 Russia

Gelanceerd Jul 29, 2009 vanaf Baikonur Cosmodrome

Loading…

Volgende Passages (komende 24 uur)

TLE

VersSource: Space-Track

Epoch: Sep 14, 2026, 09:11 UTC

1 35688U 09041H   26257.38312427 -.00000014  00000-0  10237-4 0  9999
2 35688  98.1134  39.7383 0430004  74.2016 309.7385 13.74588242859104

Volg SL-24 R/B in realtime met AllMySat

Download on the App Store